{"data":{"norad_id":53045,"epoch":"2026-05-25T02:13:03.639072Z","epoch_age_seconds":61079,"freshness":"FRESH","line1":"1 53045U 22077C   26145.09240323  .00000939  00000+0  69173-4 0  9996","line2":"2 53045  97.4489 326.1438 0000757  77.3448 282.7864 15.05641283212488","mean_motion":15.05641283,"eccentricity":7.57e-5,"inclination_deg":97.4489,"raan_deg":326.1438,"arg_perigee_deg":77.3448,"mean_anomaly_deg":282.7864,"bstar":6.9173e-5,"rev_number":21248,"period_min":95.640310627694,"perigee_km":549.01346771202,"apogee_km":550.06231769078,"semimajor_km":6927.6748927014,"source":"CELESTRAK","updated_at":"2026-05-25T13:38:17.285610Z"}}